| time (UTC) | temp F | wind direction | speed MPH | gust MPH | rain 1hr in | rain 24hr in | rain mn in | humidity % | barometer mb |
| 20260505022403 | 54 | 85 | 2.0 | 10.0 | 0.00 | 0.00 | 0.00 | 66 | 1002.4 |
| 20260505021904 | 56 | 34 | 5.0 | 10.0 | 0.00 | 0.00 | 0.00 | 59 | 1002.4 |
| 20260505021403 | 58 | 23 | 2.0 | 7.0 | 0.00 | 0.00 | 0.00 | 51 | 1002.1 |
| 20260505020904 | 58 | 22 | 0.0 | 0.0 | 0.00 | 0.00 | 0.00 | 50 | 1002.1 |
| 20260505020404 | 59 | 346 | 0.0 | 0.0 | 0.00 | 0.00 | 0.00 | 46 | 1001.9 |
| 20260505015404 | 60 | 314 | 2.0 | 15.0 | 0.00 | 0.00 | 0.00 | 44 | 1001.6 |
| 20260505014903 | 60 | 247 | 0.0 | 0.0 | 0.00 | 0.00 | 0.00 | 43 | 1001.6 |
| 20260505013903 | 60 | 308 | 0.0 | 6.0 | 0.00 | 0.00 | 0.00 | 43 | 1001.3 |
| 20260505013404 | 61 | 225 | 1.0 | 8.0 | 0.00 | 0.00 | 0.00 | 43 | 1001.2 |
| 20260505012904 | 61 | 245 | 2.0 | 7.0 | 0.00 | 0.00 | 0.00 | 43 | 1000.8 |
| 20260505012404 | 62 | 220 | 0.0 | 5.0 | 0.00 | 0.00 | 0.00 | 43 | 1000.7 |
| 20260505011903 | 63 | 233 | 0.0 | 6.0 | 0.00 | 0.00 | 0.00 | 40 | 1000.5 |
| 20260505010403 | 63 | 241 | 0.0 | 5.0 | 0.00 | 0.00 | 0.00 | 38 | 1000.2 |
| 20260505005903 | 64 | 234 | 2.0 | 8.0 | 0.00 | 0.00 | 0.00 | 37 | 1000.2 |
| 20260505005403 | 64 | 231 | 2.0 | 9.0 | 0.00 | 0.00 | 0.00 | 37 | 1000.2 |
| 20260505004404 | 64 | 224 | 2.0 | 8.0 | 0.00 | 0.00 | 0.00 | 36 | 1000.3 |
| 20260505003904 | 64 | 232 | 5.0 | 12.0 | 0.00 | 0.00 | 0.00 | 35 | 1000.3 |
| 20260505003404 | 64 | 221 | 7.0 | 15.0 | 0.00 | 0.00 | 0.00 | 35 | 1000.3 |
| 20260505002903 | 65 | 229 | 3.0 | 12.0 | 0.00 | 0.00 | 0.00 | 35 | 1000.3 |
| 20260505002404 | 65 | 224 | 8.0 | 17.0 | 0.00 | 0.00 | 0.00 | 34 | 1000.3 |
| 20260505001901 | 66 | 225 | 5.0 | 10.0 | 0.00 | 0.00 | 0.00 | 34 | 1000.0 |
| 20260505001401 | 66 | 235 | 3.0 | 9.0 | 0.00 | 0.00 | 0.00 | 32 | 1000.1 |
| 20260505000901 | 65 | 219 | 0.0 | 3.0 | 0.00 | 0.00 | 0.00 | 30 | 1000.0 |
| 20260504235901 | 65 | 218 | 0.0 | 10.0 | 0.00 | 0.00 | 0.00 | 30 | 1000.3 |
| 20260504235401 | 66 | 235 | 11.0 | 23.0 | 0.00 | 0.00 | 0.00 | 30 | 1000.3 |
| 20260504234901 | 66 | 226 | 5.0 | 9.0 | 0.00 | 0.00 | 0.00 | 30 | 1000.2 |
| 20260504234401 | 66 | 230 | 7.0 | 12.0 | 0.00 | 0.00 | 0.00 | 31 | 1000.1 |
| 20260504233901 | 67 | 233 | 5.0 | 9.0 | 0.00 | 0.00 | 0.00 | 30 | 1000.0 |
| 20260504233402 | 67 | 224 | 2.0 | 5.0 | 0.00 | 0.00 | 0.00 | 30 | 1000.1 |
| 20260504232901 | 67 | 220 | 1.0 | 7.0 | 0.00 | 0.00 | 0.00 | 31 | 1000.1 |
| 20260504232401 | 67 | 105 | 0.0 | 0.0 | 0.00 | 0.00 | 0.00 | 31 | 999.9 |
| 20260504231902 | 67 | 105 | 0.0 | 2.0 | 0.00 | 0.00 | 0.00 | 31 | 999.9 |
| 20260504231401 | 67 | 105 | 3.0 | 7.0 | 0.00 | 0.00 | 0.00 | 31 | 999.9 |
| 20260504230401 | 67 | 73 | 1.0 | 6.0 | 0.00 | 0.00 | 0.00 | 31 | 999.9 |
| 20260504225901 | 67 | 38 | 1.0 | 6.0 | 0.00 | 0.00 | 0.00 | 31 | 1000.0 |
| 20260504225401 | 67 | 25 | 1.0 | 8.0 | 0.00 | 0.00 | 0.00 | 30 | 1000.1 |
| 20260504224901 | 67 | 92 | 1.0 | 6.0 | 0.00 | 0.00 | 0.00 | 32 | 1000.2 |
| 20260504224401 | 66 | 69 | 1.0 | 7.0 | 0.00 | 0.00 | 0.00 | 33 | 1000.1 |
| 20260504223901 | 65 | 152 | 0.0 | 0.0 | 0.00 | 0.00 | 0.00 | 33 | 1000.4 |
| 20260504223401 | 65 | 153 | 2.0 | 3.0 | 0.00 | 0.00 | 0.00 | 32 | 1000.4 |
| 20260504222901 | 66 | 96 | 1.0 | 3.0 | 0.00 | 0.00 | 0.00 | 34 | 1000.5 |
| 20260504222401 | 66 | 22 | 0.0 | 0.0 | 0.00 | 0.00 | 0.00 | 37 | 1000.5 |
| 20260504221901 | 66 | 20 | 0.0 | 0.0 | 0.00 | 0.00 | 0.00 | 30 | 1000.6 |
| 20260504221401 | 66 | 334 | 0.0 | 0.0 | 0.00 | 0.00 | 0.00 | 30 | 1000.6 |
| 20260504220901 | 67 | 334 | 0.0 | 5.0 | 0.00 | 0.00 | 0.00 | 29 | 1000.6 |
| 20260504220401 | 68 | 314 | 3.0 | 8.0 | 0.00 | 0.00 | 0.00 | 30 | 1000.5 |
| 20260504215402 | 67 | 281 | 0.0 | 6.0 | 0.00 | 0.00 | 0.00 | 32 | 1000.7 |
| 20260504214901 | 66 | 248 | 0.0 | 3.0 | 0.00 | 0.00 | 0.00 | 32 | 1000.8 |
| 20260504214401 | 66 | 330 | 0.0 | 3.0 | 0.00 | 0.00 | 0.00 | 32 | 1000.9 |
| 20260504213401 | 67 | 228 | 0.0 | 0.0 | 0.00 | 0.00 | 0.00 | 32 | 1001.0 |
| 20260504212902 | 67 | 130 | 1.0 | 5.0 | 0.00 | 0.00 | 0.00 | 32 | 1001.1 |
| 20260504212402 | 67 | 240 | 1.0 | 7.0 | 0.00 | 0.00 | 0.00 | 31 | 1001.0 |
| 20260504211901 | 68 | 135 | 1.0 | 5.0 | 0.00 | 0.00 | 0.00 | 28 | 1001.0 |
| 20260504211402 | 69 | 242 | 0.0 | 3.0 | 0.00 | 0.00 | 0.00 | 27 | 1000.8 |
| 20260504205902 | 71 | 268 | 6.0 | 9.0 | 0.00 | 0.00 | 0.00 | 25 | 1000.5 |
| 20260504205402 | 71 | 258 | 1.0 | 7.0 | 0.00 | 0.00 | 0.00 | 25 | 1000.6 |
| 20260504204901 | 71 | 267 | 3.0 | 13.0 | 0.00 | 0.00 | 0.00 | 24 | 1000.7 |
| 20260504204401 | 71 | 272 | 0.0 | 7.0 | 0.00 | 0.00 | 0.00 | 24 | 1000.7 |
| 20260504203402 | 71 | 317 | 1.0 | 8.0 | 0.00 | 0.00 | 0.00 | 25 | 1000.9 |
| 20260504202901 | 71 | 285 | 1.0 | 8.0 | 0.00 | 0.00 | 0.00 | 26 | 1001.0 |
| 20260504202402 | 70 | 341 | 0.0 | 0.0 | 0.00 | 0.00 | 0.00 | 27 | 1001.1 |
| 20260504201902 | 70 | 310 | 3.0 | 9.0 | 0.00 | 0.00 | 0.00 | 26 | 1001.3 |
| 20260504200902 | 71 | 286 | 1.0 | 6.0 | 0.00 | 0.00 | 0.00 | 27 | 1001.4 |
| 20260504200401 | 71 | 224 | 1.0 | 7.0 | 0.00 | 0.00 | 0.00 | 26 | 1001.5 |
| 20260504195902 | 70 | 248 | 3.0 | 9.0 | 0.00 | 0.00 | 0.00 | 28 | 1001.5 |
| 20260504195402 | 68 | 255 | 3.0 | 9.0 | 0.00 | 0.00 | 0.00 | 29 | 1001.6 |
| 20260504193901 | 69 | 270 | 2.0 | 14.0 | 0.00 | 0.00 | 0.00 | 31 | 1001.7 |
| 20260504193401 | 69 | 246 | 6.0 | 15.0 | 0.00 | 0.00 | 0.00 | 31 | 1001.7 |
| 20260504192901 | 68 | 265 | 5.0 | 15.0 | 0.00 | 0.00 | 0.00 | 31 | 1001.8 |
| 20260504192402 | 68 | 281 | 5.0 | 15.0 | 0.00 | 0.00 | 0.00 | 31 | 1001.8 |
| 20260504191901 | 69 | 315 | 5.0 | 10.0 | 0.00 | 0.00 | 0.00 | 30 | 1001.7 |
| 20260504190901 | 69 | 305 | 3.0 | 7.0 | 0.00 | 0.00 | 0.00 | 28 | 1001.8 |
| 20260504190402 | 69 | 236 | 1.0 | 6.0 | 0.00 | 0.00 | 0.00 | 28 | 1001.9 |
| 20260504185902 | 68 | 270 | 1.0 | 6.0 | 0.00 | 0.00 | 0.00 | 27 | 1002.0 |
| 20260504185402 | 70 | 89 | 1.0 | 6.0 | 0.00 | 0.00 | 0.00 | 26 | 1002.0 |
| 20260504184901 | 71 | 289 | 0.0 | 3.0 | 0.00 | 0.00 | 0.00 | 25 | 1002.1 |
| 20260504184402 | 71 | 228 | 5.0 | 8.0 | 0.00 | 0.00 | 0.00 | 25 | 1002.2 |
| 20260504183902 | 71 | 256 | 2.0 | 6.0 | 0.00 | 0.00 | 0.00 | 25 | 1002.3 |
| 20260504182902 | 68 | 325 | 1.0 | 5.0 | 0.00 | 0.00 | 0.00 | 27 | 1002.6 |
| 20260504182401 | 66 | 22 | 0.0 | 5.0 | 0.00 | 0.00 | 0.00 | 28 | 1002.6 |
| 20260504181902 | 66 | 16 | 0.0 | 6.0 | 0.00 | 0.00 | 0.00 | 28 | 1002.6 |
| 20260504181402 | 66 | 24 | 0.0 | 1.0 | 0.00 | 0.00 | 0.00 | 27 | 1002.8 |
| 20260504175902 | 67 | 193 | 1.0 | 7.0 | 0.00 | 0.00 | 0.00 | 26 | 1003.0 |
| 20260504175401 | 68 | 218 | 1.0 | 7.0 | 0.00 | 0.00 | 0.00 | 28 | 1003.1 |
| 20260504174901 | 67 | 259 | 4.0 | 8.0 | 0.00 | 0.00 | 0.00 | 27 | 1003.1 |
| 20260504174401 | 67 | 228 | 1.0 | 5.0 | 0.00 | 0.00 | 0.00 | 28 | 1003.1 |
| 20260504173403 | 67 | 226 | 6.0 | 9.0 | 0.00 | 0.00 | 0.00 | 28 | 1003.2 |
| 20260504172901 | 68 | 190 | 3.0 | 9.0 | 0.00 | 0.00 | 0.00 | 28 | 1003.2 |
| 20260504172402 | 67 | 241 | 3.0 | 8.0 | 0.00 | 0.00 | 0.00 | 27 | 1003.3 |
| 20260504171902 | 68 | 227 | 2.0 | 6.0 | 0.00 | 0.00 | 0.00 | 27 | 1003.3 |
| 20260504170402 | 66 | 229 | 1.0 | 5.0 | 0.00 | 0.00 | 0.00 | 30 | 1003.6 |
| 20260504160402 | 62 | 224 | 3.0 | 9.0 | 0.00 | 0.00 | 0.00 | 38 | 1004.2 |
| 20260504150902 | 60 | 199 | 0.0 | 1.0 | 0.00 | 0.00 | 0.00 | 43 | 1004.7 |
| 20260504150401 | 59 | 199 | 0.0 | 0.0 | 0.00 | 0.00 | 0.00 | 44 | 1004.8 |
| 20260504140902 | 53 | 217 | 0.0 | 0.0 | 0.00 | 0.00 | 0.00 | 60 | 1005.0 |
| 20260504140402 | 52 | 217 | 0.0 | 0.0 | 0.00 | 0.00 | 0.00 | 59 | 1005.1 |
| 20260504110402 | 52 | 22 | 0.0 | 0.0 | 0.00 | 0.00 | 0.00 | 58 | 1004.9 |
| 20260504100402 | 54 | 176 | 0.0 | 7.0 | 0.00 | 0.00 | 0.00 | 52 | 1005.1 |
| 20260504081903 | 55 | 201 | 1.0 | 9.0 | 0.00 | 0.00 | 0.00 | 51 | 1005.7 |
| 20260504080903 | 54 | 183 | 0.0 | 1.0 | 0.00 | 0.00 | 0.00 | 50 | 1005.6 |
| 20260504080403 | 54 | 167 | 0.0 | 0.0 | 0.00 | 0.00 | 0.00 | 50 | 1005.6 |
| 20260504070403 | 57 | 203 | 0.0 | 0.0 | 0.00 | 0.00 | 0.00 | 44 | 1005.6 |
| 20260504050403 | 56 | 244 | 0.0 | 0.0 | 0.00 | 0.00 | 0.00 | 36 | 1005.0 |
| 20260504045903 | 56 | 244 | 0.0 | 0.0 | 0.00 | 0.00 | 0.00 | 35 | 1004.9 |
| 20260504045403 | 57 | 244 | 0.0 | 0.0 | 0.00 | 0.00 | 0.00 | 35 | 1004.9 |
| 20260504044903 | 57 | 243 | 0.0 | 5.0 | 0.00 | 0.00 | 0.00 | 33 | 1004.9 |
| 20260504044404 | 58 | 162 | 0.0 | 1.0 | 0.00 | 0.00 | 0.00 | 35 | 1004.8 |
| 20260504043903 | 59 | 138 | 0.0 | 0.0 | 0.00 | 0.00 | 0.00 | 33 | 1004.8 |
| 20260504043403 | 59 | 136 | 0.0 | 0.0 | 0.00 | 0.00 | 0.00 | 30 | 1004.7 |
| 20260504042903 | 59 | 119 | 0.0 | 1.0 | 0.00 | 0.00 | 0.00 | 30 | 1004.6 |
| 20260504042403 | 59 | 119 | 0.0 | 0.0 | 0.00 | 0.00 | 0.00 | 30 | 1004.6 |
| 20260504041903 | 59 | 119 | 0.0 | 3.0 | 0.00 | 0.00 | 0.00 | 30 | 1004.6 |
| 20260504040903 | 59 | 114 | 1.0 | 7.0 | 0.00 | 0.00 | 0.00 | 30 | 1004.6 |
| 20260504040403 | 59 | 105 | 1.0 | 7.0 | 0.00 | 0.00 | 0.00 | 30 | 1004.6 |
| 20260504035903 | 59 | 124 | 2.0 | 6.0 | 0.00 | 0.00 | 0.00 | 30 | 1004.6 |
| 20260504035403 | 59 | 119 | 0.0 | 3.0 | 0.00 | 0.00 | 0.00 | 30 | 1004.5 |
| 20260504034903 | 59 | 110 | 1.0 | 5.0 | 0.00 | 0.00 | 0.00 | 30 | 1004.6 |
| 20260504034404 | 59 | 113 | 0.0 | 5.0 | 0.00 | 0.00 | 0.00 | 31 | 1004.5 |
| 20260504033403 | 59 | 108 | 3.0 | 7.0 | 0.00 | 0.00 | 0.00 | 31 | 1004.6 |
| 20260504032403 | 59 | 113 | 0.0 | 3.0 | 0.00 | 0.00 | 0.00 | 30 | 1004.6 |
| 20260504031903 | 59 | 113 | 1.0 | 5.0 | 0.00 | 0.00 | 0.00 | 30 | 1004.7 |
| 20260504031410 | 59 | 126 | 1.0 | 3.0 | 0.00 | 0.00 | 0.00 | 30 | 1004.7 |
| 20260504030903 | 59 | 129 | 0.0 | 5.0 | 0.00 | 0.00 | 0.00 | 30 | 1004.7 |
| 20260504030404 | 60 | 129 | 0.0 | 2.0 | 0.00 | 0.00 | 0.00 | 29 | 1004.7 |
| 20260504025904 | 60 | 130 | 1.0 | 3.0 | 0.00 | 0.00 | 0.00 | 28 | 1004.7 |
| 20260504025403 | 61 | 117 | 0.0 | 1.0 | 0.00 | 0.00 | 0.00 | 27 | 1004.7 |
| 20260504024904 | 62 | 111 | 2.0 | 5.0 | 0.00 | 0.00 | 0.00 | 26 | 1004.7 |
| 20260504024404 | 63 | 114 | 0.0 | 1.0 | 0.00 | 0.00 | 0.00 | 25 | 1004.7 |
| 20260504023403 | 65 | 309 | 0.0 | 0.0 | 0.00 | 0.00 | 0.00 | 23 | 1004.5 |
| 20260504022903 | 65 | 309 | 0.0 | 0.0 | 0.00 | 0.00 | 0.00 | 23 | 1004.6 |